CanjetBLOCKVirtuelBLOCKQcBLOCKBLOCKBLOCKBLOCKBLOCKBLOCKBLOCKBLOCKBLOCKBLOCKBLOCKvolsBLOCKavecBLOCKFS-kACARS2021-02-26BLOCK10colon48pm

volsBLOCKBLOCKBLOCKBLOCKBLOCKpilotesBLOCKBLOCKBLOCKBLOCKBLOCKBLOCKBLOCKBLOCKtypeBLOCKBLOCKdepBLOCKBLOCKarrBLOCKBLOCKBLOCKBLOCKBLOCKaltBLOCKBLOCKBLOCKBLOCKBLOCKgsBLOCKBLOCKBLOCKBLOCKstatut

cja1043LouisBLOCKMB77LKORD-KMEM25636ft432kts11colon41pm
cja9999MichelBLOCKAB737TJSJ-CYQB37070ft412kts02colon29am
cja9999Jean-PierreBLOCKAB788CYUL-CYYZ0ft0ktsarrived
CJA942RochBLOCKJA320CYUL-KFLL0ft0ktsarrived
CJA9999BerthinBLOCKHA320CYGL-CYQB0ft0ktsarrived
CJA9999StephaneBLOCKGA333EDDP-KLAX33999ft432kts08colon23am







BLOCKAppuyerBLOCKsurBLOCKF5BLOCKpourBLOCKactualiserBLOCKBLOCKBLOCKMiseBLOCKaBLOCKjourcolonBLOCK22colon48colon47pmCanjetBLOCKvirtuelBLOCKQC

Bienvenue chez Canjetvirtuel-Q

Publié par Michel Ayotte le 2013-06-14

 

Canjetvirtuel-Québec est une compagnie aérienne virtuelle qui a été fondée par 2 passionnés de la simulation de vol.

Elle est opérée avec les Boeing 737. Exceptionnelement et pour votre plaisir tous les autres versions de Boeing et Airbus sont autorisées.

Ces appareils pouvant faire des vols cargos ou des vols passagers, que ce soit au Canada, Europe, États-Unis, Mexique, Caraïbes et autres destinations mondiales.

Vous trouverez votre place comme pilote chez nous!



Avis

Aux fins de la simulation de vol seulement. CanjetVirtuel Québec n'est en aucun cas affilié avec n'importe quelle compagnie aérienne du monde réel. CanjetVirtuel Québec est un site à but non lucratif gérée par des amateurs de simulation de vol. Toutes les images sont la propriété exclusive de leurs propriétaires respectifs.
| propulsé par phpVMS, © 2013-2020.

Notice

For flight simulation purposes only. CanjetVirtuel Quebec is in no way affiliated with any real world airline. CanjetVirtuel Quebec is a non-profit site run by flight simulation enthusiasts. All images are the sole property of their respective owners.
| powered by phpVMS, © 2013-2020.

Affiliations

Vatsim

Les statistiques du site

Nombre de pilotes: 14
Total des vols effectués: 7748
Trajets disponibles: 736
Passagers transportés: 1991893
Total des heures de vol: 26515
Distance totale (NM): 10356317
Pilotes en ligne: 1

Nouvelles

Bienvenue chez Canjetvirtuel-Q
06/14/2013

METAR

CYHZ 270300Z 28003KT 15SM SKC M09/M14 A3043 RMK SLP319

CYQB 270300Z 04003KT 340V050 15SM SCT240 M15/M19 A3034 RMK CI3 SLP284

CYUL 270300Z 10003KT 15SM FEW250 M05/M11 A3033 RMK CI1 PRESFR SLP275

CYYZ 270300Z 11007KT 15SM SKC 00/M04 A3014 RMK SLP216